This demonstration page uses our WeatherBlox Daily Observations layout. Learn more.

Left ArrowRight Arrow

41.86663, -103.66717

Hourly Observations for June 16, 2020

Temp ( °F °C ) Dew Point ( °F °C ) Humidity (%) Winds ( mph kmh ) Pressure ( in mb ) Visibility ( mi km ) Precip ( " mm )
12:53 am 00:53 Clear 70 21.1 50 10 49 49 ESE 13 20 29.72 1007 10 16 0.00 0.00
1:53 am 01:53 Clear 68 20 49 9.4 51 51 ESE 10 17 29.72 1007 10 16 0.00 0.00
2:53 am 02:53 Clear 75 23.9 44 6.7 33 33 SSE 10 17 29.70 1006 10 16 0.00 0.00
3:53 am 03:53 Clear 69 20.6 45 7.2 42 42 SE 8 13 29.72 1006 10 16 0.00 0.00
4:53 am 04:53 Clear 64 17.8 48 8.9 56 56 ESE 10 17 29.72 1006 10 16 0.00 0.00
5:53 am 05:53 Sunny 63 17.2 49 9.4 60 60 E 9 15 29.72 1006 10 16 0.00 0.00
6:53 am 06:53 Sunny 69 20.6 50 10 51 51 ESE 10 17 29.71 1006 10 16 0.00 0.00
7:53 am 07:53 Sunny 72 22.2 51 10.6 48 48 ESE 12 19 29.71 1006 10 16 0.00 0.00
8:53 am 08:53 Sunny 75 23.9 50 10 41 41 SE 10 17 29.72 1007 10 16 0.00 0.00
9:53 am 09:53 Sunny 81 27.2 51 10.6 35 35 ESE 12 19 29.70 1006 10 16 0.00 0.00
10:53 am 10:53 Sunny 86 30 52 11.1 31 31 ESE 15 24 29.69 1006 10 16 0.00 0.00
11:53 am 11:53 Sunny 90 32.2 51 10.6 26 26 ESE 16 26 29.67 1005 10 16 0.00 0.00
12:53 pm 12:53 Sunny 93 33.9 48 8.9 21 21 ESE 17 28 29.64 1004 10 16 0.00 0.00
1:53 pm 13:53 Sunny 96 35.6 40 4.4 14 14 SE 16 26 29.61 1003 10 16 0.00 0.00
2:53 pm 14:53 Sunny 96 35.6 43 6.1 16 16 SE 12 19 29.57 1001 10 16 0.00 0.00
3:53 pm 15:53 Sunny 98 36.7 37 2.8 12 12 S 20 31 29.52 1000 10 16 0.00 0.00
4:53 pm 16:53 Sunny 99 37.2 37 2.8 12 12 SSE 18 30 29.51 999 10 16 0.00 0.00
5:53 pm 17:53 Sunny 95 35 39 3.9 14 14 SSE 17 28 29.49 999 10 16 0.00 0.00
6:53 pm 18:53 Sunny 95 35 38 3.3 14 14 SSE 13 20 29.47 998 10 16 0.00 0.00
7:53 pm 19:53 Sunny 89 31.7 41 5 19 19 SSE 17 28 29.48 998 10 16 0.00 0.00
8:53 pm 20:53 Clear 89 31.7 46 7.8 23 23 SSE 29 46 29.49 999 10 16 0.00 0.00
9:53 pm 21:53 Mostly Clear 86 30 46 7.8 25 25 ESE 12 19 29.52 1000 10 16 0.00 0.00
10:03 pm 22:03 Mostly Clear with Thunderstorms 86 30 47 8.3 26 26 SSE 21 33 29.38 995 10 16 0.00 0.00
10:18 pm 22:18 Clear 85 29.4 47 8.3 27 27 SSE 18 30 29.39 995 10 16 0.00 0.00
10:53 pm 22:53 Clear 84 28.9 47 8.3 27 27 WSW 12 19 29.57 1001 10 16 0.00 0.00

Powered by AerisWeather